Location: Apeadero de Los Molinos-Guadarrama
(40.7091°N, 4.0689°W)
Time: 09:50:09
(UTC+00:00)

Cosmos 2297 - Pass Details

Date: 14 May 2021
Orbit: 837 x 857 km, 71.0° (Epoch: 20 June)

Event Time Altitude Azimuth Distance (km) Brightness Sun altitude
Exits shadow 22:22:01 34° 221° (SW) 1,357 4.6 -25.1°
Maximum altitude 22:24:29 70° 295° (WNW) 904 3.9 -25.3°
Drops below altitude 10° 22:30:09 10° 19° (NNE) 2,473 6.7 -25.8°
Sets 22:32:37 0° 22° (NNE) 3,409 7.4 -26.1°
